Location: San Martino di Castrozza
(46.2667°N, 11.8000°E)
Time: 02:09:40
(UTC+00:00)

ADEOS Rocket - Pass Details

Date: 23 April 2021
Orbit: 859 x 1306 km, 98.7° (Epoch: 15 May)

Event Time Altitude Azimuth Distance (km) Brightness Sun altitude
Exits shadow 02:28:39 14° 190° (S) 2,584 4.8 -16.4°
Maximum altitude 02:34:11 51° 263° (W) 1,397 3.5 -15.6°
Drops below altitude 10° 02:41:12 10° 338° (NNW) 3,165 5.8 -14.7°
Sets 02:44:05 0° 343° (NNW) 4,186 6.6 -14.3°
